Simultaneous Nadir Overpasses (SNOs) Predictions

Prediction of SNOs between METOP-A and NOAA-19 Satellite Orbit:

Table of predicted SNOs for the next 14.0 days since TLE Epoch: 2/15/2013
Index Date (METOP-A) Time (METOP-A) Lat,Lon (METOP-A) SZA (METOP-A ) Date (NOAA-19) Time (NOAA-19) Lat,Lon (NOAA-19) SZA (NOAA-19 ) Distance(km) Time Diff (sec)
1 02/18/2013 10:26:38 73.76, 16.92 85.41 02/18/2013 10:25:28 73.77, 15.26 85.52 51.76 70
2 02/18/2013 11:17:28 -73.37,-176.65 94.96 02/18/2013 11:16:24 -73.37,-176.55 94.95 3.24 64
3 02/18/2013 12:08:07 73.39, -9.27 85.05 02/18/2013 12:07:25 73.39, -9.35 85.07 2.50 42
4 02/18/2013 12:58:50 -73.35, 157.96 95.00 02/18/2013 12:58:28 -73.33, 158.02 95.02 2.69 22
5 02/18/2013 13:49:30 73.32, -34.78 84.96 02/18/2013 13:49:28 73.31, -34.67 84.95 3.62 2
6 02/18/2013 14:40:12 -73.33, 132.57 95.05 02/18/2013 14:40:33 -73.34, 132.47 95.03 3.59 21
7 02/18/2013 15:30:52 73.29, -60.17 84.92 02/18/2013 15:31:33 73.32, -60.22 84.94 3.05 41
8 02/18/2013 16:21:35 -73.25, 107.07 95.13 02/18/2013 16:22:36 -73.26, 107.15 95.15 2.74 61
9 02/18/2013 17:12:21 72.92, -86.32 84.57 02/18/2013 17:13:31 72.98, -84.98 84.54 44.10 70
10 02/28/2013 10:19:42 73.50, 18.04 81.49 02/28/2013 10:18:28 73.53, 17.62 81.56 13.71 74
11 02/28/2013 11:10:26 -73.42,-174.82 98.59 02/28/2013 11:09:32 -73.42,-174.90 98.58 2.66 54
12 02/28/2013 12:01:06 73.38, -7.58 81.36 02/28/2013 12:00:30 73.40, -7.59 81.39 1.91 36
13 02/28/2013 12:51:49 -73.35, 159.69 98.68 02/28/2013 12:51:36 -73.39, 159.67 98.65 3.47 13
14 02/28/2013 13:42:28 73.36, -32.96 81.32 02/28/2013 13:42:34 73.36, -33.02 81.32 1.92 6
15 02/28/2013 14:33:11 -73.33, 134.30 98.73 02/28/2013 14:33:40 -73.35, 134.23 98.72 2.71 29
16 02/28/2013 15:23:51 73.29, -58.46 81.23 02/28/2013 15:24:38 73.33, -58.46 81.25 3.88 47
17 02/28/2013 16:14:34 -73.26, 108.81 98.82 02/28/2013 16:15:43 -73.26, 108.91 98.84 3.34 69
18 02/28/2013 17:05:24 72.71, -85.03 80.70 02/28/2013 17:06:31 72.74, -82.68 80.58 77.46 67




NCC Satellite Simultaneous Nadir Overpasses (SNOs) Prediction Service
